Location: Dal�� Lhota
(48.7500°N, 14.0167°E)
Time: 02:22:39
(UTC+00:00)

Cosmos 2298 Rocket - Pass Details

Date: 24 September 2020
Orbit: 777 x 783 km, 74.0° (Epoch: 29 October)

Event Time Altitude Azimuth Distance (km) Brightness Sun altitude
Rises 18:19:22 0° 209° (SSW) 3,259 7.4 -14.3°
Reaches altitude 10° 18:21:45 10° 212° (SSW) 2,335 6.7 -14.7°
Maximum altitude 18:27:03 68° 295° (WNW) 847 4.4 -15.5°
Drops below altitude 10° 18:32:22 10° 19° (NNE) 2,348 6.5 -16.3°
Sets 18:34:47 0° 22° (NNE) 3,280 7.2 -16.7°
